Location: *
(40.7873°S, 98.7174°E)
Time: 12:15:15
(UTC+00:00)

NOSS 3-4 (C) - Pass Details

Date: 02 October 2022
Orbit: 836 x 1376 km, 63.4° (Epoch: 25 November)

Event Time Altitude Azimuth Distance (km) Brightness Sun altitude
Exits shadow 22:15:04 - 247° (WSW) 4,214 6.3 -8.6°
Reaches altitude 10° 22:19:18 10° 225° (SW) 3,319 6.0 -7.8°
Maximum altitude 22:23:16 14° 195° (SSW) 2,924 6.0 -7.1°
Drops below altitude 10° 22:27:04 10° 165° (SSE) 3,141 6.5 -6.4°
Sets 22:31:26 0° 140° (SE) 3,979 7.6 -5.6°
